Temperature
16 16 16 16 16 16 17 17 17 17 17 17 17 17 17 17 17 17 16 16 16 16 16 16 16 16 15 15 15 15 15 15 15 15 15 15 15 15 15 15 14 14 15
16 16 16 16 16 16 16 17 17 17 17 17 17 17 17 16 16 16 16 16 16 16 16 16 15 15 15 15 15 15 15 15 15 15 15 15 15 15 15 15 15 14 15
16 16 16 16 16 16 16 16 16 16 16 17 16 16 16 16 16 16 16 16 16 15 16 16 15 15 15 15 15 15 15 15 15 15 15 14 14 15 15 15 15 15 15
16 16 16 16 16 16 16 16 16 16 16 16 16 16 16 16 16 16 16 16 16 15 15 15 15 15 15 15 15 15 15 15 15 15 14 14 14 14 14 15 14 14 14
15 16 16 16 16 16 16 16 16 16 16 16 16 16 16 16 16 16 16 16 16 15 15 15 15 15 15 15 15 15 15 15 15 14 14 14 14 14 14 14 14 14 14
15 15 16 16 16 16 16 16 16 16 16 16 16 16 16 16 16 16 16 16 15 15 15 15 15 15 15 15 15 15 14 14 14 14 14 13 13 14 14 14 14 14 14
15 15 15 15 15 15 16 16 16 16 16 16 16 16 16 16 16 16 16 16 15 15 15 15 15 15 15 15 15 15 14 14 14 13 13 13 13 14 14 14 14 14 14
15 15 15 15 15 15 15 15 15 15 15 16 16 16 16 15 15 15 16 15 15 15 15 15 15 15 15 15 15 14 14 14 14 13 13 13 14 14 14 14 14 14 14
15 15 15 15 15 15 15 15 15 15 15 15 15 15 15 15 15 15 15 15 15 15 15 15 15 15 15 15 15 14 14 14 13 13 13 13 14 14 14 14 14 14 14
14 14 15 15 15 15 15 15 15 15 15 15 15 15 15 15 15 15 15 15 15 15 15 15 15 15 15 15 14 14 14 14 13 13 13 13 14 14 14 14 14 14 14
14 14 14 14 15 15 15 15 15 15 15 15 15 15 15 15 15 15 15 15 15 15 15 15 15 15 15 14 14 14 14 14 13 13 13 14 14 14 14 14 14 14 14
14 14 14 14 14 14 14 14 15 15 15 15 15 15 15 15 15 15 15 15 15 15 15 15 15 14 14 14 14 14 14 14 13 13 13 14 14 14 14 14 14 14 14
13 13 14 14 14 14 14 14 14 14 14 14 14 14 14 14 14 14 14 14 14 14 14 14 14 14 14 14 14 14 14 13 13 13 13 14 14 14 14 14 13 13 14
13 13 13 13 14 14 14 14 14 14 14 14 14 14 14 14 14 14 14 14 14 14 14 14 14 14 14 14 14 13 13 13 13 13 13 14 14 14 14 14 13 13 13
12 13 13 13 13 13 14 14 14 14 14 14 14 14 14 14 14 14 14 14 14 14 14 14 14 13 13 13 13 13 13 13 13 13 13 14 14 14 14 14 13 13 13
12 12 12 13 13 13 13 13 13 13 13 13 13 13 13 13 13 13 13 13 13 13 13 13 13 13 13 13 13 13 13 13 13 13 13 13 14 14 14 13 13 13 13
12 12 12 12 12 12 13 13 13 13 13 13 13 13 13 13 13 13 13 13 13 13 13 13 13 13 13 13 13 13 13 13 13 13 13 13 13 14 14 13 13 13 13
11 11 12 12 12 12 12 12 12 12 12 12 12 12 12 12 12 12 12 12 12 12 12 12 12 12 12 12 13 13 13 13 13 13 13 13 13 13 13 13 13 13 13
11 11 11 11 11 11 11 11 11 11 11 11 12 12 12 12 12 12 12 12 12 12 12 12 12 12 12 12 12 12 12 12 13 13 13 13 13 13 13 13 13 13 13
10 10 10 11 11 11 11 10 11 11 11 11 11 11 11 11 11 11 11 11 11 11 11 11 11 11 11 12 12 12 12 12 12 12 12 12 12 12 12 12 12 12 13
10 10 10 10 10 10 10 10 10 10 10 10 11 11 11 11 11 11 11 11 11 11 11 11 11 11 11 11 11 11 11 11 12 12 12 12 12 12 12 12 12 12 12
10 10 10 10 10 10 10 10 10 10 10 10 10 10 10 10 11 10 10 10 10 10 10 10 10 10 10 10 10 10 10 11 11 11 11 11 12 12 11 12 11 11 12
9 9 9 9 9 9 9 9 9 9 10 10 10 10 10 10 10 10 10 10 10 10 10 10 10 10 10 10 10 10 10 11 11 11 11 11 11 11 11 11 11 11 11
9 9 9 9 9 9 9 9 9 9 9 9 9 9 9 9 10 10 10 10 10 9 9 9 9 9 9 9 9 9 9 10 10 10 10 10 10 10 10 10 10 10 11
9 9 9 9 9 9 8 8 8 8 8 8 9 9 9 9 9 9 9 9 9 9 9 9 9 9 9 9 9 9 9 9 9 9 9 9 9 10 10 10 10 10 10
8 8 8 8 8 8 8 8 8 8 8 8 8 8 8 8 8 8 8 8 9 9 9 9 9 8 8 8 8 8 8 8 8 8 8 8 9 9 9 9 9 9 9
Wind_Speed
2 3 5 6 9 9 9 9 10 10 11 10 10 10 10 10 10 10 9 9 8 8 8 8 9 9 9 9 9 9 9 9 10 10 10 10 9 10 9 7 6 10 10
2 4 7 7 9 9 9 9 9 10 10 10 10 10 10 9 9 9 9 8 8 8 8 8 9 9 9 9 9 8 9 9 9 9 8 9 9 8 8 7 7 9 9
3 5 8 8 8 8 9 9 9 9 9 9 9 9 9 9 8 8 8 8 7 7 7 8 8 8 8 8 8 8 8 8 8 6 4 5 8 7 7 7 7 8 7
4 5 7 8 8 8 8 8 8 8 8 8 9 8 8 8 8 7 7 7 7 7 7 7 7 7 7 8 8 8 7 7 6 3 3 4 5 7 5 5 5 6 6
5 6 7 8 7 7 7 7 7 7 7 7 8 8 7 8 8 7 7 7 7 7 7 7 7 7 7 8 8 7 7 6 4 3 3 3 4 5 4 5 4 5 5
5 6 7 7 7 7 6 6 6 6 6 6 6 7 7 7 7 6 7 6 6 7 7 7 7 7 7 8 7 7 7 6 5 3 2 2 3 4 4 3 3 3 3
5 6 7 7 6 6 6 5 5 5 4 5 5 6 6 7 7 6 6 6 7 7 8 8 8 8 8 8 8 7 7 6 4 3 2 2 2 3 3 3 2 2 2
5 5 6 7 7 6 4 3 3 3 3 3 3 4 4 5 6 6 7 7 7 7 8 8 9 8 8 8 8 8 8 7 5 4 3 3 2 2 3 3 3 2 2
5 5 5 4 4 5 4 4 2 2 2 2 3 3 4 4 5 6 6 7 7 8 8 9 9 9 9 8 8 8 8 8 7 4 4 3 3 4 4 4 4 4 4
6 5 5 4 3 2 1 2 1 1 1 2 3 3 4 5 6 7 8 8 8 8 8 9 9 9 9 9 9 9 9 9 8 6 5 4 5 6 6 6 6 6 5
6 5 5 4 4 3 2 1 1 2 2 4 5 4 6 6 7 7 8 7 8 9 9 9 10 10 9 10 10 9 10 8 8 7 6 5 7 8 8 8 7 7 7
5 6 5 5 4 3 2 2 2 2 3 4 4 5 6 6 6 6 6 8 9 9 10 10 10 10 11 10 11 11 9 9 8 7 6 6 8 10 10 9 8 8 8
4 5 5 5 5 4 3 2 2 3 3 4 4 5 5 6 5 6 6 7 9 10 10 9 11 11 10 8 8 9 9 8 7 7 7 8 9 11 11 10 10 9 9
4 5 5 5 4 4 4 3 3 3 3 3 4 5 5 4 5 5 5 6 6 7 8 8 8 9 10 10 10 10 10 9 8 7 7 8 10 11 11 11 10 10 10
3 4 5 5 5 4 3 3 3 3 4 4 4 5 6 5 5 5 6 6 7 7 7 7 8 8 9 9 10 10 10 10 10 9 7 8 11 11 11 12 11 11 11
4 4 5 5 5 4 3 3 3 3 4 4 4 5 6 6 5 5 6 6 6 7 8 8 8 8 8 8 9 10 11 11 10 10 9 8 11 12 12 12 12 12 12
4 5 5 5 5 5 4 4 4 4 4 4 4 5 5 5 6 5 6 6 6 7 8 7 8 8 8 8 9 10 9 10 10 11 10 9 9 11 13 13 13 13 13
4 4 5 4 5 5 4 4 4 4 4 3 4 5 5 6 6 5 5 6 6 7 6 6 6 7 7 8 8 8 8 8 11 11 10 10 9 9 10 13 13 13 13
3 4 5 5 5 5 4 4 3 3 3 3 4 4 5 5 6 5 5 5 6 6 6 6 6 6 7 8 8 8 8 8 9 10 11 11 10 10 9 9 13 13 13
3 4 4 5 5 5 4 3 3 2 3 3 3 4 5 5 5 5 5 6 6 5 6 6 7 7 7 7 7 8 8 9 9 9 10 10 10 11 11 10 10 11 13
3 4 4 5 5 4 3 3 3 3 3 3 3 4 5 5 5 5 5 5 6 6 7 7 6 7 7 5 5 6 7 9 9 9 8 9 9 10 10 11 10 9 8
4 4 5 5 5 4 4 3 3 4 4 4 4 4 5 5 5 4 5 5 5 6 7 7 7 6 5 5 5 5 5 6 8 8 8 8 9 8 9 10 9 9 8
4 4 4 5 5 4 4 3 3 3 3 3 4 4 4 5 4 4 5 5 5 5 6 6 7 7 6 6 5 5 5 5 4 5 7 7 7 7 6 6 7 8 8
4 4 4 4 4 4 4 4 4 4 5 5 5 4 5 5 4 4 5 4 5 5 5 6 6 6 7 6 5 6 6 5 4 4 5 5 6 6 6 5 6 6 6
3 3 4 4 4 4 4 4 5 5 5 5 5 5 5 4 4 4 4 4 4 4 5 6 5 6 6 6 5 4 5 6 7 7 7 5 5 5 5 5 4 4 4
3 3 3 4 4 4 4 4 5 5 5 5 5 5 4 3 3 4 4 4 4 4 5 5 5 5 5 6 6 5 5 5 5 6 7 6 6 4 4 3 3 3 3
Wind_Direction
133 130 125 146 146 142 140 137 136 137 139 143 144 145 144 144 145 144 141 137 134 130 125 125 125 122 116 111 109 105 102 98 95 92 88 85 89 95 92 85 89 91 87
143 142 127 144 148 148 142 141 140 141 143 146 149 150 150 149 149 149 148 145 142 137 131 129 130 125 121 117 113 110 106 101 97 94 98 101 92 92 91 76 60 84 89
116 128 129 131 143 144 144 143 144 146 148 150 152 153 154 155 155 152 154 154 151 146 140 136 132 129 128 127 122 116 112 109 106 110 150 120 108 98 97 90 86 93 94
101 115 120 116 128 133 136 140 146 151 153 154 156 158 159 161 162 162 162 160 159 153 147 142 137 137 138 138 133 126 121 118 119 164 149 107 112 105 104 100 96 100 99
95 95 100 107 120 127 128 133 142 148 156 161 161 160 164 167 168 170 169 166 162 156 150 148 148 147 148 147 144 139 136 134 149 193 117 116 113 116 117 105 101 107 104
92 86 93 97 110 117 122 129 135 147 158 160 163 166 166 167 169 172 171 172 167 163 160 160 161 161 161 159 158 155 152 159 188 157 141 141 122 122 133 125 115 112 108
90 78 88 86 93 108 115 123 133 141 151 164 171 177 181 181 178 177 174 176 178 178 175 175 174 174 173 174 175 171 167 180 200 174 171 163 125 133 154 154 155 138 130
83 76 83 81 80 82 97 117 136 149 155 161 173 187 188 189 192 189 187 184 183 188 189 188 187 186 185 185 185 184 182 199 207 203 200 188 138 187 186 180 191 195 196
71 68 67 77 87 83 78 76 93 129 160 180 192 202 202 196 196 199 196 194 194 195 198 198 197 195 194 194 193 191 192 210 227 212 214 207 177 218 215 206 210 216 224
55 49 48 50 50 61 84 74 68 118 186 215 213 216 216 208 206 204 208 204 204 204 205 205 204 202 201 200 200 199 197 211 229 224 222 204 202 227 229 221 221 226 230
45 34 32 31 24 18 1 322 235 204 216 226 217 215 221 226 223 215 217 209 211 212 211 212 210 206 205 203 202 201 205 224 226 231 229 205 216 228 233 232 228 231 235
38 28 22 19 7 359 343 310 274 257 245 244 241 234 237 239 235 238 216 212 216 217 216 214 214 210 215 213 202 202 221 228 233 229 226 209 226 231 234 236 234 232 234
30 22 14 7 0 352 338 323 301 279 263 255 253 250 251 248 242 237 230 217 221 220 222 215 216 220 223 222 219 218 227 231 232 231 224 208 228 235 235 237 238 233 234
18 11 4 359 356 348 333 321 304 288 277 269 259 256 255 251 249 245 239 235 232 230 230 228 230 229 230 229 229 231 229 231 234 234 230 209 226 236 238 239 241 237 237
6 356 352 352 348 341 332 318 305 289 283 277 267 256 251 252 252 248 247 242 239 239 237 238 237 235 235 236 236 238 238 237 238 237 231 212 222 233 240 242 242 241 240
354 346 343 346 343 336 330 319 306 294 285 281 279 271 258 253 254 254 251 249 246 243 242 241 242 240 237 238 241 241 242 241 241 240 241 225 218 227 237 243 242 243 244
344 341 341 339 339 335 327 319 311 303 292 285 279 277 271 261 256 254 252 250 251 249 246 245 244 243 242 239 242 243 245 245 244 243 240 240 232 223 229 238 241 243 246
340 341 341 338 335 332 327 317 312 309 305 298 291 279 271 267 259 252 251 251 253 251 248 246 245 243 243 241 243 244 245 246 249 247 242 237 238 237 226 227 237 243 247
339 337 339 338 332 327 321 313 310 309 309 305 298 295 288 277 268 258 254 253 250 249 246 246 246 245 247 246 247 247 247 245 246 246 246 242 238 237 241 225 225 237 244
335 337 335 333 331 326 319 313 308 305 311 310 305 305 299 290 278 267 260 256 249 245 244 244 248 245 248 249 252 252 250 246 244 243 246 246 242 240 241 243 236 233 233
331 334 333 331 331 328 322 313 305 305 310 310 317 318 308 297 286 273 268 260 251 245 245 246 248 247 245 244 253 258 255 247 244 242 242 244 243 242 243 242 241 242 234
321 326 323 323 323 323 318 312 298 297 298 303 307 311 311 306 297 283 272 266 259 252 247 244 246 249 249 236 241 258 261 253 242 239 237 239 243 239 238 240 242 241 244
311 319 318 316 316 317 315 305 297 288 285 291 296 298 304 304 298 289 279 270 269 261 255 250 245 246 249 242 236 240 249 252 272 242 239 239 241 240 239 238 239 242 244
300 310 308 310 312 313 307 295 293 290 289 294 297 296 300 299 298 296 290 281 274 270 265 258 250 249 249 246 243 245 257 267 262 263 246 242 245 245 246 243 242 241 241
290 302 303 305 308 309 301 294 289 283 285 290 291 293 296 297 300 301 294 285 280 275 274 270 262 253 250 249 246 248 254 256 252 257 261 254 250 250 255 254 250 246 248
282 294 301 301 306 310 303 295 288 286 287 290 293 293 294 296 303 308 300 290 286 280 277 276 269 260 254 253 250 244 244 246 250 250 255 257 260 265 265 265 261 261 268
Height
1532 1533 1533 1535 1536 1537 1538 1539 1540 1541 1542 1542 1543 1543 1543 1543 1544 1544 1544 1544 1544 1544 1544 1544 1544 1544 1543 1543 1543 1543 1543 1543 1542 1542 1542 1542 1542 1542 1541 1541 1542 1541 1540
1531 1533 1534 1535 1536 1537 1539 1540 1540 1541 1542 1543 1543 1543 1544 1544 1544 1544 1544 1544 1545 1545 1545 1545 1545 1544 1544 1544 1544 1544 1544 1544 1544 1544 1543 1543 1543 1543 1543 1542 1542 1542 1541
1531 1533 1534 1535 1537 1538 1539 1540 1541 1542 1542 1543 1543 1544 1544 1544 1545 1545 1545 1545 1545 1545 1545 1545 1545 1545 1545 1545 1545 1545 1545 1545 1545 1545 1545 1545 1544 1544 1543 1543 1543 1542 1542
1531 1533 1534 1535 1537 1538 1539 1540 1541 1542 1542 1543 1544 1544 1544 1545 1545 1545 1545 1545 1545 1545 1545 1545 1545 1545 1545 1545 1545 1545 1545 1545 1545 1545 1546 1546 1546 1544 1544 1544 1543 1543 1543
1532 1533 1534 1535 1536 1538 1539 1540 1541 1542 1542 1543 1544 1544 1544 1545 1545 1545 1545 1545 1545 1545 1545 1545 1546 1546 1546 1546 1546 1546 1546 1546 1546 1546 1546 1546 1546 1545 1544 1544 1544 1544 1543
1532 1533 1534 1535 1536 1537 1538 1539 1540 1541 1542 1543 1543 1544 1544 1544 1545 1545 1545 1545 1545 1545 1545 1545 1545 1546 1546 1546 1546 1546 1546 1546 1546 1547 1547 1546 1546 1545 1545 1544 1544 1544 1544
1532 1533 1534 1535 1536 1537 1538 1539 1540 1540 1541 1542 1542 1543 1543 1544 1544 1544 1545 1545 1545 1545 1545 1545 1545 1545 1545 1545 1545 1546 1546 1546 1546 1547 1546 1546 1546 1545 1545 1544 1544 1544 1543
1532 1533 1534 1535 1535 1536 1537 1538 1539 1539 1540 1541 1541 1542 1542 1543 1543 1543 1544 1544 1544 1544 1544 1544 1544 1544 1545 1545 1545 1545 1545 1545 1546 1546 1546 1546 1545 1544 1544 1544 1544 1543 1543
1532 1533 1533 1534 1535 1535 1536 1537 1537 1538 1539 1539 1540 1541 1541 1541 1542 1542 1542 1542 1543 1543 1543 1543 1543 1543 1544 1544 1544 1544 1544 1545 1546 1546 1545 1545 1544 1544 1544 1543 1543 1543 1542
1531 1532 1533 1533 1534 1534 1535 1535 1536 1537 1537 1538 1538 1539 1539 1540 1540 1540 1540 1541 1541 1541 1541 1542 1542 1542 1542 1543 1543 1543 1543 1543 1544 1544 1544 1543 1543 1543 1543 1542 1542 1542 1542
1531 1531 1532 1532 1533 1533 1533 1534 1535 1535 1535 1536 1536 1537 1537 1538 1538 1538 1538 1538 1539 1539 1539 1540 1540 1540 1541 1541 1541 1541 1542 1542 1543 1543 1542 1542 1541 1541 1541 1541 1541 1541 1540
1530 1530 1531 1531 1531 1531 1532 1532 1533 1533 1533 1533 1534 1534 1534 1535 1535 1535 1535 1536 1536 1536 1537 1537 1537 1538 1538 1539 1539 1539 1540 1540 1541 1540 1540 1539 1539 1540 1539 1539 1539 1539 1539
1529 1529 1529 1529 1529 1530 1530 1530 1530 1530 1530 1531 1531 1531 1531 1532 1532 1532 1532 1533 1533 1533 1534 1534 1535 1535 1536 1536 1537 1537 1537 1538 1538 1538 1537 1537 1537 1537 1537 1537 1537 1537 1537
1528 1528 1528 1528 1528 1527 1527 1527 1527 1527 1528 1528 1528 1528 1528 1528 1528 1529 1529 1529 1530 1530 1531 1531 1532 1532 1533 1533 1534 1534 1535 1535 1535 1535 1534 1534 1534 1535 1535 1535 1535 1534 1534
1527 1527 1526 1526 1526 1525 1525 1525 1525 1525 1525 1525 1524 1524 1524 1525 1525 1525 1526 1526 1526 1527 1527 1528 1528 1529 1529 1530 1531 1531 1531 1532 1532 1531 1531 1531 1531 1531 1531 1532 1531 1531 1531
1525 1525 1524 1524 1523 1523 1522 1522 1521 1521 1521 1521 1521 1521 1521 1521 1521 1521 1522 1522 1523 1523 1524 1524 1525 1525 1526 1526 1527 1527 1528 1528 1528 1528 1527 1527 1527 1528 1528 1528 1528 1528 1528
1524 1523 1522 1522 1521 1520 1519 1519 1518 1518 1518 1517 1517 1517 1517 1517 1517 1517 1517 1518 1519 1519 1520 1520 1521 1521 1522 1522 1522 1523 1523 1524 1524 1524 1524 1523 1523 1523 1523 1524 1524 1524 1524
1522 1521 1520 1520 1519 1518 1517 1516 1515 1515 1514 1514 1514 1513 1513 1513 1513 1513 1514 1514 1514 1515 1515 1516 1516 1517 1517 1518 1518 1518 1519 1519 1519 1519 1519 1519 1519 1519 1519 1519 1519 1520 1520
1520 1519 1518 1517 1516 1515 1514 1513 1512 1512 1511 1510 1510 1510 1510 1510 1509 1509 1510 1510 1511 1511 1511 1511 1512 1513 1513 1513 1513 1513 1513 1513 1513 1514 1514 1514 1514 1514 1514 1514 1514 1515 1515
1518 1517 1516 1515 1514 1513 1512 1511 1510 1509 1508 1508 1507 1507 1506 1506 1506 1506 1506 1506 1507 1507 1507 1507 1507 1508 1508 1508 1508 1508 1508 1508 1508 1508 1508 1509 1509 1509 1509 1509 1509 1509 1510
1516 1515 1514 1513 1512 1510 1509 1508 1507 1507 1506 1505 1504 1503 1503 1502 1502 1502 1502 1502 1502 1502 1502 1503 1503 1503 1503 1504 1504 1503 1502 1502 1502 1502 1502 1503 1503 1503 1504 1504 1504 1504 1504
1514 1513 1512 1511 1509 1508 1507 1506 1505 1504 1503 1502 1501 1500 1499 1499 1499 1498 1498 1498 1498 1498 1498 1498 1499 1498 1498 1499 1500 1499 1498 1498 1496 1496 1496 1497 1497 1498 1498 1498 1499 1499 1499
1512 1510 1509 1508 1507 1505 1504 1503 1502 1501 1500 1499 1498 1497 1496 1496 1495 1495 1495 1494 1494 1494 1494 1494 1494 1494 1494 1494 1495 1496 1495 1493 1492 1492 1491 1491 1492 1492 1493 1493 1493 1493 1493
1509 1508 1507 1505 1504 1503 1502 1501 1500 1498 1497 1496 1495 1494 1493 1492 1491 1491 1491 1490 1490 1490 1490 1490 1490 1490 1490 1489 1489 1490 1490 1489 1490 1487 1487 1487 1486 1487 1487 1488 1488 1488 1488
1506 1505 1504 1503 1502 1500 1499 1498 1497 1495 1494 1492 1491 1490 1489 1488 1488 1487 1487 1486 1486 1485 1485 1485 1485 1485 1485 1485 1485 1485 1484 1484 1484 1484 1483 1482 1482 1482 1482 1482 1482 1482 1482
1504 1503 1502 1500 1499 1498 1497 1495 1494 1492 1491 1489 1488 1487 1486 1485 1484 1483 1483 1482 1481 1481 1481 1481 1481 1481 1481 1480 1480 1480 1480 1480 1479 1479 1478 1477 1477 1477 1477 1477 1477 1477 1476